Weather Roundup
Issued by NWS Springfield, MO

Home | Current Version | Previous Version | Text Only | Print | Product List | Glossary On
Versions: 1 2 3 4 5 6 7 8 9 10 11 12 13 14 15 16 17 18 19 20 21 22 23 24 25 26 27 28 29 30 31 32 33 34 35 36 37 38 39 40 41 42 43 44 45 46 47 48 49 50
000
NZUS99 KSGF 011407
HRRSGF

HOURLY WEATHER
NATIONAL WEATHER SERVICE SPRINGFIELD MO
900 AM CDT SUN MAY 01 2016

......SGF CWA......

CITY           SKY/WX    TMP DP  RH WIND       PRES   REMARKS
SPRINGFIELD    SUNNY     57  45  64 W10       29.99R
JOPLIN         SUNNY     56  47  71 W9        30.02R
WEST PLAINS    SUNNY     62  52  69 N6        29.96R
ROLLA          SUNNY     59  51  75 NW6       29.92R
OSAGE BEACH    SUNNY     57  45  62 W7        29.95R
BRANSON        SUNNY     57  46  67 NW5       30.00R

......SURROUNDING SGF CWA......

CITY           SKY/WX    TMP DP  RH WIND       PRES   REMARKS
CHANUTE        SUNNY     51  43  74 NW12      30.02R
PARSONS        SUNNY     52  46  80 NW8       30.03S
COFFEYVILLE    CLOUDY    52  45  77 NW9       30.03S
EMPORIA        MOSUNNY   48  42  80 W12       30.02R
GROVE OK       SUNNY     55  48  76 W7        30.03R
ROGERS AR      SUNNY     56  47  71 W7        30.02R
SILOAM SPRINGS SUNNY     55  43  62 NW9G16    30.03R
HARRISON AR    SUNNY     59  47  64 VRB7      29.99R
NEAR YELLVILLE SUNNY    N/A N/A N/A N7        29.94R

......KANSAS AND MISSOURI......

CITY           SKY/WX    TMP DP  RH WIND       PRES   REMARKS
KANSAS CTY INT MOSUNNY   55  48  77 W8        29.96R
DOWNTOWN KC    MOSUNNY   56  46  69 W9        29.97R
COLUMBIA       CLOUDY    61  55  81 CALM      29.93R
SEDALIA        SUNNY     58  50  75 W10       29.96R
ST JOSEPH      CLOUDY    53  49  86 W8        29.96R
ST LOUIS       CLOUDY    62  58  86 N7        29.91R
SPIRIT OF STL  CLOUDY    60  58  92 W6        29.91R
KIRKSVILLE     CLOUDY    50  47  89 NE7       29.96R FOG
WICHITA        PTSUNNY   48  39  71 NW21G26   30.06R
TOPEKA         CLOUDY    51  46  83 W10       30.00R
OLATHE         SUNNY     52  45  77 W8        29.98R

......TENNESSEE......

CITY           SKY/WX    TMP DP  RH WIND       PRES   REMARKS
MEMPHIS        MOSUNNY   74  67  78 S3        29.92R
NASHVILLE      PTSUNNY   69  63  81 S8        29.97R

......ARKANSAS.......

CITY           SKY/WX    TMP DP  RH WIND       PRES   REMARKS
FAYETTEVILLE   SUNNY     56  51  84 CALM      30.01R
FT SMITH       SUNNY     61  47  59 W8        30.01R
LITTLE ROCK    MOSUNNY   71  58  63 N9        29.92F

......OKLAHOMA.......

CITY           SKY/WX    TMP DP  RH WIND       PRES   REMARKS
TULSA          MOSUNNY   54  44  69 NW10      30.04R
PONCA CITY     MOSUNNY   49  40  71 NW12G23   30.07R
MCALESTER      CLOUDY    55  44  66 NW15G22   30.05R
OKLAHOMA CITY  MOSUNNY   49  39  68 NW20      30.09R

......IOWA............

CITY           SKY/WX    TMP DP  RH WIND       PRES   REMARKS
DES MOINES     CLOUDY    46  43  89 E8        30.00R
QUAD CITIES    CLOUDY    49  45  86 NE10      29.97S FOG

......ILLINOIS........

CITY           SKY/WX    TMP DP  RH WIND       PRES   REMARKS
QUINCY         CLOUDY    51  49  92 NE8       29.94R FOG
CHICAGO        FOG       43  43 100 NE13      30.00R VSB 3/4



USA.gov is the U.S. government's official web portal to all federal, state and local government web resources and services.